This is the latest recevied weather packets stored in our database for station/object KE5JQA-1. If no packets are shown the sender has not sent any weather packets the latest 10 day(s).
| Time | Temp. | Humidity | Pressure | Rain* | Wind** | Luminosity | Snow |
|---|---|---|---|---|---|---|---|
| 1777719016 | 9.44° C | 40% | 1020.2 hPa | 0 mm | - | - | - |
| 1777718716 | 9.44° C | 40% | 1020.1 hPa | 0 mm | - | - | - |
| 1777718136 | 9.44° C | 40% | 1020 hPa | 0 mm | - | - | - |
| 1777717816 | 9.44° C | 40% | 1020.1 hPa | 0 mm | - | - | - |
| 1777716318 | 10° C | 39% | 1020.1 hPa | 0 mm | - | - | - |
| 1777714818 | 10.56° C | 39% | 1020 hPa | 0 mm | - | - | - |
| 1777714519 | 10.56° C | 39% | 1019.8 hPa | 0 mm | - | - | - |
| 1777711817 | 11.11° C | 37% | 1019.6 hPa | 0 mm | - | - | - |
| 1777703717 | 13.33° C | 32% | 1019.5 hPa | 0 mm | - | - | - |
| 1777702558 | 13.33° C | 31% | 1019.7 hPa | 0 mm | - | - | - |
| 1777701617 | 13.33° C | 28% | 1019.7 hPa | 0 mm | - | - | - |
| 1777699537 | 13.33° C | 29% | 1019.7 hPa | 0 mm | - | - | - |
| 1777698639 | 13.33° C | 31% | 1019.6 hPa | 0 mm | - | - | - |
| 1777698318 | 13.33° C | 31% | 1019.5 hPa | 0 mm | - | - | - |
| 1777697117 | 13.33° C | 32% | 1019.5 hPa | 0 mm | - | - | - |
| 1777696218 | 13.33° C | 33% | 1019.4 hPa | 0 mm | - | - | - |
| 1777695017 | 13.33° C | 33% | 1019.2 hPa | 0 mm | - | - | - |
| 1777694717 | 13.33° C | 32% | 1019.2 hPa | 0 mm | - | - | - |
| 1777693837 | 13.33° C | 32% | 1019.1 hPa | 0 mm | - | - | - |
| 1777692318 | 13.33° C | 35% | 1019 hPa | 0 mm | - | - | - |
| 1777691718 | 13.33° C | 38% | 1018.9 hPa | 0 mm | - | - | - |
| 1777689317 | 12.78° C | 41% | 1018.3 hPa | 0 mm | - | - | - |
| 1777688717 | 12.78° C | 41% | 1018 hPa | 0 mm | - | - | - |
| 1777686617 | 12.78° C | 41% | 1017.5 hPa | 0 mm | - | - | - |
| 1777684817 | 12.78° C | 41% | 1017.3 hPa | 0.51 mm | - | - | - |
* Rain latest hour (hover to see other rain measurements)
** Current wind speed in m/s (hover to see current wind gust speed)